FW9262 Weather Reports


Display with metric or nautical units.
time (UTC)temp
F
wind
direction
speed
MPH
gust
MPH
rain 1hr
in
rain 24hr
in
rain mn
in
humidity
%
barometer
mb
20260831153343 77 356 1.0 2.0 0.00 0.00 0.00 72 1016.3
20260831152839 78 352 0.0 2.0 0.00 0.00 0.00 71 1016.3
20260831152334 78 346 1.0 1.0 0.00 0.00 0.00 70 1016.3
20260831151829 78 347 0.0 0.0 0.00 0.00 0.00 71 1016.0
20260831151328 76 4 0.0 1.0 0.00 0.00 0.00 75 1016.3
20260831150824 77 330 0.0 1.0 0.00 0.00 0.00 73 1016.3
20260831150319 78 33 1.0 1.0 0.00 0.00 0.00 72 1016.0
20260831145818 77 359 0.0 0.0 0.00 0.00 0.00 74 1016.0
20260831145315 75 350 0.0 0.0 0.00 0.00 0.00 76 1016.0
20260831144810 75 349 0.0 1.0 0.00 0.00 0.00 77 1016.0
20260831144306 74 3 1.0 1.0 0.00 0.00 0.00 78 1016.0
20260831143806 73 3 0.0 1.0 0.00 0.00 0.00 78 1016.0
20260831143301 72 2 1.0 1.0 0.00 0.00 0.00 79 1016.0
20260831142756 71 356 0.0 1.0 0.00 0.00 0.00 81 1016.0
20260831142252 70 351 0.0 0.0 0.00 0.00 0.00 85 1016.0
20260831141751 69 358 0.0 0.0 0.00 0.00 0.00 88 1015.6
20260831141251 69 348 0.0 0.0 0.00 0.00 0.00 90 1015.6
20260831140746 68 347 0.0 0.0 0.00 0.00 0.00 90 1015.6
20260831140241 67 342 0.0 0.0 0.00 0.00 0.00 90 1015.6
20260831135738 66 345 0.0 0.0 0.00 0.00 0.00 90 1015.3
20260831135234 66 346 0.0 0.0 0.00 0.00 0.00 90 1015.3
20260831134729 66 341 0.0 0.0 0.00 0.00 0.00 90 1015.6
20260831134226 66 338 0.0 0.0 0.00 0.00 0.00 90 1015.3
20260831133725 66 330 0.0 0.0 0.00 0.00 0.00 90 1014.9
20260831133219 65 340 0.0 0.0 0.00 0.00 0.00 90 1014.9
20260831132715 65 338 0.0 0.0 0.00 0.00 0.00 90 1014.9
20260831132214 66 341 0.0 0.0 0.00 0.00 0.00 90 1014.9
20260831131709 66 336 0.0 0.0 0.00 0.00 0.00 90 1014.9
20260831131206 66 333 0.0 0.0 0.00 0.00 0.00 90 1015.3
20260831130700 66 341 0.0 0.0 0.00 0.00 0.00 90 1014.9
20260831130156 66 335 0.0 0.0 0.00 0.00 0.00 90 1014.9
20260831125654 66 338 0.0 0.0 0.00 0.00 0.00 90 1014.9
20260831125150 66 341 0.0 0.0 0.00 0.00 0.00 90 1014.9
20260831124645 66 338 0.0 0.0 0.00 0.00 0.00 90 1014.9
20260831124141 66 334 0.0 0.0 0.00 0.00 0.00 90 1014.9
20260831123636 66 341 0.0 0.0 0.00 0.00 0.00 90 1014.9
20260831123134 66 341 0.0 0.0 0.00 0.00 0.00 90 1014.9
20260831122634 66 342 0.0 0.0 0.00 0.00 0.00 90 1014.9
20260831122131 67 344 0.0 0.0 0.00 0.00 0.00 90 1014.9
20260831121630 66 338 0.0 0.0 0.00 0.00 0.00 90 1014.9
20260831121126 66 338 0.0 0.0 0.00 0.00 0.00 90 1014.9
20260831120621 67 338 0.0 0.0 0.00 0.00 0.00 90 1014.9
20260831120116 67 339 0.0 0.0 0.00 0.00 0.00 90 1014.9
20260831115612 67 342 0.0 0.0 0.00 0.00 0.00 90 1014.9
20260831115107 67 340 0.0 0.0 0.00 0.00 0.00 90 1014.9
20260831114606 67 340 0.0 0.0 0.00 0.00 0.00 90 1014.9
20260831114101 67 339 0.0 0.0 0.00 0.00 0.00 90 1014.9
20260831113600 67 340 0.0 0.0 0.00 0.00 0.00 90 1014.9
20260831113056 67 340 0.0 0.0 0.00 0.00 0.00 89 1014.9
20260831112555 67 341 0.0 0.0 0.00 0.00 0.00 89 1014.9
20260831112050 67 340 0.0 0.0 0.00 0.00 0.00 89 1014.9
20260831111547 67 338 0.0 0.0 0.00 0.00 0.00 89 1014.9
20260831111042 67 341 0.0 0.0 0.00 0.00 0.00 89 1014.9
20260831110537 67 339 0.0 0.0 0.00 0.00 0.00 89 1014.9
20260831110032 68 337 0.0 0.0 0.00 0.00 0.00 89 1014.9
20260831105531 67 338 0.0 0.0 0.00 0.00 0.00 88 1014.6
20260831105026 67 341 0.0 0.0 0.00 0.00 0.00 88 1014.9
20260831104523 67 342 0.0 0.0 0.00 0.00 0.00 88 1014.9
20260831104018 67 340 0.0 0.0 0.00 0.00 0.00 88 1014.9
20260831103513 68 349 0.0 0.0 0.00 0.00 0.00 88 1014.9
20260831103009 68 339 0.0 0.0 0.00 0.00 0.00 87 1014.9
20260831102503 68 340 0.0 0.0 0.00 0.00 0.00 87 1015.3
20260831101958 68 342 0.0 0.0 0.00 0.00 0.00 87 1014.9
20260831101453 68 347 0.0 0.0 0.00 0.00 0.00 87 1014.9
20260831100949 68 336 0.0 0.0 0.00 0.00 0.00 87 1014.9
20260831100445 68 343 0.0 0.0 0.00 0.00 0.00 86 1014.9
20260831095940 69 346 0.0 0.0 0.00 0.00 0.00 86 1014.9
20260831095439 69 339 0.0 0.0 0.00 0.00 0.00 86 1014.9
20260831094934 69 339 0.0 0.0 0.00 0.00 0.00 86 1014.9
20260831094430 69 339 0.0 0.0 0.00 0.00 0.00 86 1014.9
20260831093926 69 331 0.0 0.0 0.00 0.00 0.00 85 1014.9
20260831093420 69 343 0.0 0.0 0.00 0.00 0.00 84 1014.9
20260831092917 70 342 0.0 0.0 0.00 0.00 0.00 84 1014.9
20260831092413 70 341 0.0 0.0 0.00 0.00 0.00 84 1014.9
20260831091908 70 338 0.0 1.0 0.00 0.00 0.00 84 1014.9
20260831091403 70 338 0.0 1.0 0.00 0.00 0.00 83 1014.9
20260831090858 70 340 0.0 0.0 0.00 0.00 0.00 83 1014.9
20260831090354 70 306 1.0 1.0 0.00 0.00 0.00 83 1014.9
20260831085850 70 294 0.0 0.0 0.00 0.00 0.00 82 1014.9
20260831085344 70 340 0.0 1.0 0.00 0.00 0.00 82 1014.9
20260831084839 70 323 1.0 2.0 0.00 0.00 0.00 81 1014.9
20260831084335 70 223 1.0 1.0 0.00 0.00 0.00 81 1014.9
20260831083831 70 331 1.0 1.0 0.00 0.00 0.00 81 1014.9
20260831083326 70 322 0.0 3.0 0.00 0.00 0.00 81 1014.9
20260831082825 70 238 2.0 2.0 0.00 0.00 0.00 81 1014.9
20260831082320 70 45 0.0 2.0 0.00 0.00 0.00 81 1014.9
20260831081816 70 346 0.0 1.0 0.00 0.00 0.00 80 1014.9
20260831081311 70 336 0.0 2.0 0.00 0.00 0.00 80 1014.9
20260831080807 70 349 0.0 1.0 0.00 0.00 0.00 78 1014.9
20260831080301 70 14 1.0 1.0 0.00 0.00 0.00 78 1014.9
20260831075757 70 345 0.0 1.0 0.00 0.00 0.00 78 1014.9
20260831075252 70 21 0.0 1.0 0.00 0.00 0.00 78 1014.9
20260831074752 70 7 0.0 2.0 0.00 0.00 0.00 78 1014.9
20260831074246 70 16 1.0 2.0 0.00 0.00 0.00 78 1014.9
20260831073742 69 352 1.0 2.0 0.00 0.00 0.00 79 1014.6
20260831073241 69 2 1.0 1.0 0.00 0.00 0.00 79 1014.3
20260831072736 69 10 1.0 1.0 0.00 0.00 0.00 80 1014.6
20260831072232 69 7 0.0 1.0 0.00 0.00 0.00 80 1014.6
20260831071732 69 359 0.0 0.0 0.00 0.00 0.00 80 1014.6
20260831071227 69 354 0.0 0.0 0.00 0.00 0.00 80 1014.6
20260831070721 69 346 0.0 0.0 0.00 0.00 0.00 81 1014.3
20260831070215 69 350 0.0 0.0 0.00 0.00 0.00 81 1014.6
20260831065714 69 342 0.0 0.0 0.00 0.00 0.00 81 1014.6
20260831065213 69 336 0.0 0.0 0.00 0.00 0.00 81 1014.6
20260831064708 69 347 0.0 1.0 0.00 0.00 0.00 81 1014.6
20260831064203 69 347 0.0 0.0 0.00 0.00 0.00 81 1014.6
20260831063659 69 346 0.0 0.0 0.00 0.00 0.00 81 1014.9
20260831063154 69 342 0.0 0.0 0.00 0.00 0.00 80 1014.6
20260831062649 69 345 0.0 0.0 0.00 0.00 0.00 80 1014.6
20260831062148 69 346 0.0 0.0 0.00 0.00 0.00 80 1014.3
20260831061646 70 343 0.0 1.0 0.00 0.00 0.00 80 1014.6
20260831061142 69 333 0.0 0.0 0.00 0.00 0.00 80 1014.6
20260831060638 70 338 0.0 0.0 0.00 0.00 0.00 80 1014.6
20260831060138 70 332 0.0 0.0 0.00 0.00 0.00 80 1014.3
20260831055637 70 341 0.0 1.0 0.00 0.00 0.00 80 1014.6
20260831055133 70 337 0.0 0.0 0.00 0.00 0.00 80 1014.6
20260831054632 70 336 0.0 0.0 0.00 0.00 0.00 80 1014.6
20260831054132 70 336 0.0 0.0 0.00 0.00 0.00 81 1014.6
20260831053627 70 334 0.0 0.0 0.00 0.00 0.00 81 1014.6
20260831053126 70 323 0.0 0.0 0.00 0.00 0.00 81 1014.6
20260831052625 70 314 0.0 1.0 0.00 0.00 0.00 81 1014.3
20260831052124 70 271 1.0 1.0 0.00 0.00 0.00 82 1014.3
20260831051622 71 314 1.0 2.0 0.00 0.00 0.00 82 1014.6
20260831051115 71 340 0.0 0.0 0.00 0.00 0.00 82 1014.6
20260831050610 71 314 1.0 2.0 0.00 0.00 0.00 82 1014.6
20260831050108 71 341 0.0 1.0 0.00 0.00 0.00 82 1014.6
20260831045603 71 305 0.0 1.0 0.00 0.00 0.00 82 1014.9
20260831045058 71 333 2.0 3.0 0.00 0.00 0.00 82 1014.6
20260831044553 71 266 1.0 2.0 0.00 0.00 0.00 82 1014.3
20260831044048 71 250 1.0 2.0 0.00 0.00 0.00 81 1014.3
20260831043543 71 306 1.0 2.0 0.00 0.00 0.00 81 1014.6
20260831043039 71 301 2.0 2.0 0.00 0.00 0.00 81 1014.6
20260831042538 71 293 1.0 3.0 0.00 0.00 0.00 81 1014.3
20260831042033 71 314 0.0 3.0 0.00 0.00 0.00 80 1014.3
20260831041528 71 323 1.0 3.0 0.00 0.00 0.00 79 1014.3
20260831041027 71 322 2.0 3.0 0.00 0.00 0.00 79 1014.6
20260831040522 71 34 2.0 2.0 0.00 0.00 0.00 78 1014.3
20260831040022 71 308 2.0 3.0 0.00 0.00 0.00 78 1014.3
20260831035519 71 230 3.0 4.0 0.00 0.00 0.00 78 1014.3
20260831035015 71 285 2.0 2.0 0.00 0.00 0.00 78 1013.9
20260831034509 71 347 0.0 2.0 0.00 0.00 0.00 77 1013.9
20260831034005 72 290 2.0 4.0 0.00 0.00 0.00 77 1013.9
20260831033500 72 325 0.0 1.0 0.00 0.00 0.00 77 1013.9
20260831032956 72 164 2.0 3.0 0.00 0.00 0.00 77 1013.6
20260831032455 72 304 1.0 2.0 0.00 0.00 0.00 77 1013.6
20260831031950 72 339 0.0 2.0 0.00 0.00 0.00 77 1013.6
20260831031450 72 314 1.0 3.0 0.00 0.00 0.00 78 1013.2
20260831030949 72 320 1.0 2.0 0.00 0.00 0.00 78 1013.6
20260831030449 72 267 2.0 3.0 0.00 0.00 0.00 78 1013.2
20260831025947 72 240 2.0 3.0 0.00 0.00 0.00 78 1013.2
20260831025446 72 248 2.0 4.0 0.00 0.00 0.00 78 1013.2
20260831024942 72 292 2.0 6.0 0.00 0.00 0.00 78 1013.6
20260831024442 72 253 2.0 3.0 0.00 0.00 0.00 78 1013.6
20260831023937 73 239 3.0 4.0 0.00 0.00 0.00 77 1013.2
20260831023435 73 272 2.0 2.0 0.00 0.00 0.00 77 1013.2
20260831022930 73 324 0.0 2.0 0.00 0.00 0.00 77 1013.2
20260831022429 73 259 2.0 2.0 0.00 0.00 0.00 77 1013.2
20260831021924 73 195 1.0 2.0 0.00 0.00 0.00 77 1013.2
20260831021424 73 343 0.0 1.0 0.00 0.00 0.00 77 1013.2
20260831020920 73 288 1.0 2.0 0.00 0.00 0.00 77 1013.2
20260831020419 74 340 2.0 4.0 0.00 0.00 0.00 76 1013.2
20260831015914 74 303 2.0 3.0 0.00 0.00 0.00 75 1013.2
20260831015410 74 274 2.0 2.0 0.00 0.00 0.00 75 1012.9
20260831014910 74 339 1.0 3.0 0.00 0.00 0.00 74 1012.9
20260831014405 74 222 4.0 4.0 0.00 0.00 0.00 74 1012.9
20260831013901 75 340 1.0 2.0 0.00 0.00 0.00 75 1013.2
20260831013356 75 294 1.0 2.0 0.00 0.00 0.00 74 1013.2
20260831012850 75 338 0.0 1.0 0.00 0.00 0.00 75 1013.2
20260831012345 75 323 1.0 3.0 0.00 0.00 0.00 75 1012.9
20260831011840 75 327 2.0 3.0 0.00 0.00 0.00 75 1013.2
20260831011335 76 233 4.0 4.0 0.00 0.00 0.00 75 1012.9
20260831010831 76 344 1.0 2.0 0.00 0.00 0.00 75 1013.2
20260831010330 75 343 0.0 1.0 0.00 0.00 0.00 76 1013.2
20260831005826 75 314 1.0 3.0 0.00 0.00 0.00 76 1013.2
20260831005321 75 281 3.0 6.0 0.00 0.00 0.00 76 1013.2
20260831004816 76 309 2.0 3.0 0.00 0.00 0.00 76 1013.2
20260831004312 76 236 2.0 4.0 0.00 0.00 0.00 77 1013.2
20260831003808 77 354 4.0 7.0 0.00 0.00 0.00 75 1013.2
20260831003304 77 347 2.0 3.0 0.00 0.00 0.00 73 1012.9
20260831002803 77 333 0.0 3.0 0.00 0.00 0.00 76 1013.2
20260831002305 76 300 2.0 6.0 0.00 0.00 0.00 77 1013.2
20260831001758 77 259 4.0 7.0 0.00 0.00 0.00 75 1013.2
20260831001253 78 228 4.0 6.0 0.00 0.00 0.00 73 1013.2
20260831000751 78 329 2.0 3.0 0.00 0.00 0.00 73 1013.2
20260831000250 77 321 2.0 7.0 0.00 0.00 0.00 76 1013.2
20260830235749 77 105 3.0 6.0 0.00 0.00 0.00 76 1013.2
20260830235244 77 268 4.0 4.0 0.00 0.00 0.00 75 1013.2
20260830234739 77 282 2.0 4.0 0.00 0.00 0.00 75 1013.2
20260830234235 79 282 2.0 4.0 0.00 0.00 0.00 73 1013.2
20260830233731 79 341 0.0 2.0 0.00 0.00 0.00 73 1013.2
20260830233226 79 216 4.0 6.0 0.00 0.00 0.00 72 1012.9
20260830232721 80 246 4.0 7.0 0.00 0.00 0.00 71 1013.2
20260830232217 80 321 1.0 4.0 0.00 0.00 0.00 72 1013.2
20260830231714 81 320 2.0 3.0 0.00 0.00 0.00 70 1013.2
20260830231213 81 306 4.0 7.0 0.00 0.00 0.00 71 1013.2
20260830230708 81 332 2.0 8.0 0.00 0.00 0.00 71 1013.2
20260830230203 81 264 4.0 4.0 0.00 0.00 0.00 70 1013.2
20260830225657 81 245 1.0 2.0 0.00 0.00 0.00 70 1013.2
20260830225152 81 179 3.0 7.0 0.00 0.00 0.00 70 1013.2
20260830224650 81 272 3.0 6.0 0.00 0.00 0.00 70 1013.2
20260830224147 81 342 3.0 6.0 0.00 0.00 0.00 70 1013.6
20260830223643 81 276 2.0 8.0 0.00 0.00 0.00 71 1013.6
20260830223138 82 294 2.0 6.0 0.00 0.00 0.00 71 1013.9
20260830222632 82 12 1.0 7.0 0.00 0.00 0.00 71 1013.6
20260830222129 82 178 2.0 7.0 0.00 0.00 0.00 70 1013.6
20260830221624 84 314 1.0 3.0 0.00 0.00 0.00 67 1013.9
20260830221120 82 181 1.0 7.0 0.00 0.00 0.00 71 1013.9
20260830220615 82 267 3.0 8.0 0.00 0.00 0.00 71 1013.9
20260830220114 82 243 5.0 7.0 0.00 0.00 0.00 69 1013.9
20260830215613 82 256 2.0 3.0 0.00 0.00 0.00 70 1013.9
20260830215108 82 264 2.0 4.0 0.00 0.00 0.00 69 1014.3
20260830214603 83 285 2.0 4.0 0.00 0.00 0.00 69 1014.3
20260830214058 81 317 1.0 7.0 0.00 0.00 0.00 72 1014.3
20260830213557 83 269 3.0 8.0 0.00 0.00 0.00 69 1014.3
20260830213053 82 217 3.0 7.0 0.00 0.00 0.00 70 1014.3
20260830212549 82 276 4.0 6.0 0.00 0.00 0.00 68 1014.3
20260830212048 83 279 2.0 9.0 0.00 0.00 0.00 69 1014.6
20260830211543 82 217 3.0 6.0 0.00 0.00 0.00 68 1014.6
20260830211038 82 249 4.0 7.0 0.00 0.00 0.00 69 1014.6
20260830210533 83 303 3.0 6.0 0.00 0.00 0.00 68 1014.6
20260830210032 83 283 4.0 8.0 0.00 0.00 0.00 67 1014.6
20260830205530 82 258 4.0 7.0 0.00 0.00 0.00 68 1014.6
20260830205026 82 298 3.0 6.0 0.00 0.00 0.00 67 1014.9
20260830204525 82 264 4.0 6.0 0.00 0.00 0.00 67 1014.6
20260830204024 82 242 5.0 9.0 0.00 0.00 0.00 68 1014.6
20260830203521 83 259 2.0 7.0 0.00 0.00 0.00 67 1014.9
20260830203016 82 352 1.0 4.0 0.00 0.00 0.00 69 1014.9
20260830202515 82 198 2.0 7.0 0.00 0.00 0.00 67 1014.9
20260830202012 83 242 4.0 6.0 0.00 0.00 0.00 67 1014.6
20260830201510 84 327 2.0 4.0 0.00 0.00 0.00 67 1014.6
20260830201006 82 209 4.0 6.0 0.00 0.00 0.00 67 1014.6
20260830200506 83 245 4.0 6.0 0.00 0.00 0.00 66 1014.6
20260830200005 82 288 3.0 6.0 0.00 0.00 0.00 66 1014.6
20260830195501 82 254 4.0 8.0 0.00 0.00 0.00 66 1014.9
20260830194959 83 286 3.0 7.0 0.00 0.00 0.00 65 1014.9
20260830194459 83 243 2.0 6.0 0.00 0.00 0.00 65 1014.6
20260830193953 83 189 5.0 7.0 0.00 0.00 0.00 66 1014.9
20260830193453 82 295 4.0 6.0 0.00 0.00 0.00 67 1014.9
20260830192948 82 201 3.0 7.0 0.00 0.00 0.00 68 1014.9
20260830192443 83 245 4.0 6.0 0.00 0.00 0.00 65 1014.9
20260830191938 83 327 0.0 7.0 0.00 0.00 0.00 65 1014.9
20260830191438 83 254 2.0 6.0 0.00 0.00 0.00 64 1014.9
20260830190934 84 236 2.0 6.0 0.00 0.00 0.00 64 1015.3
20260830190429 84 271 1.0 7.0 0.00 0.00 0.00 64 1014.9
20260830185928 83 301 5.0 6.0 0.00 0.00 0.00 62 1014.9
20260830185423 83 308 0.0 3.0 0.00 0.00 0.00 62 1014.9
20260830184919 84 258 5.0 7.0 0.00 0.00 0.00 62 1014.9
20260830184418 84 288 4.0 7.0 0.00 0.00 0.00 62 1014.9
20260830183917 84 246 2.0 4.0 0.00 0.00 0.00 63 1014.9
20260830183412 84 256 3.0 4.0 0.00 0.00 0.00 62 1014.9
20260830182908 84 237 2.0 6.0 0.00 0.00 0.00 62 1014.9
20260830182403 83 274 3.0 4.0 0.00 0.00 0.00 63 1014.9
20260830181859 83 282 3.0 3.0 0.00 0.00 0.00 62 1014.9
20260830181354 83 312 3.0 7.0 0.00 0.00 0.00 63 1015.3
20260830180849 84 303 4.0 4.0 0.00 0.00 0.00 62 1014.9
20260830180343 84 295 1.0 4.0 0.00 0.00 0.00 63 1014.9
20260830175842 84 280 2.0 7.0 0.00 0.00 0.00 63 1014.9
20260830175337 84 190 2.0 6.0 0.00 0.00 0.00 64 1015.3
20260830174832 85 320 3.0 6.0 0.00 0.00 0.00 62 1015.3
20260830174327 86 258 0.0 3.0 0.00 0.00 0.00 58 1014.9
20260830173827 86 343 1.0 3.0 0.00 0.00 0.00 58 1014.9
20260830173322 86 81 2.0 2.0 0.00 0.00 0.00 56 1014.9
20260830172819 85 41 1.0 2.0 0.00 0.00 0.00 57 1014.9
20260830172315 84 308 1.0 2.0 0.00 0.00 0.00 58 1014.9
20260830171811 85 301 1.0 2.0 0.00 0.00 0.00 56 1014.9
20260830171306 85 46 1.0 2.0 0.00 0.00 0.00 54 1014.9
20260830170801 85 46 1.0 2.0 0.00 0.00 0.00 57 1014.6
20260830170300 84 356 0.0 2.0 0.00 0.00 0.00 59 1014.9
20260830165759 83 359 1.0 2.0 0.00 0.00 0.00 60 1014.6
20260830165255 83 33 1.0 2.0 0.00 0.00 0.00 60 1014.9
20260830164751 84 354 0.0 2.0 0.00 0.00 0.00 59 1014.6
20260830164247 84 216 1.0 2.0 0.00 0.00 0.00 58 1014.9
20260830163743 84 347 0.0 2.0 0.00 0.00 0.00 59 1014.9
20260830163239 84 12 1.0 2.0 0.00 0.00 0.00 58 1014.9
20260830162733 84 340 0.0 3.0 0.00 0.00 0.00 60 1014.9
20260830162229 84 70 2.0 3.0 0.00 0.00 0.00 60 1014.9
20260830161725 83 348 0.0 2.0 0.00 0.00 0.00 63 1014.9
20260830161219 82 353 1.0 4.0 0.00 0.00 0.00 65 1014.9
20260830160715 82 19 0.0 0.0 0.00 0.00 0.00 65 1014.9
20260830160215 82 356 2.0 2.0 0.00 0.00 0.00 65 1014.9
20260830155711 81 350 0.0 2.0 0.00 0.00 0.00 67 1014.9
20260830155207 81 16 0.0 1.0 0.00 0.00 0.00 67 1014.9
20260830154702 80 20 0.0 3.0 0.00 0.00 0.00 69 1014.9
20260830154157 79 346 0.0 2.0 0.00 0.00 0.00 70 1014.9
20260830153654 80 48 2.0 3.0 0.00 0.00 0.00 70 1014.9